This is the latest recevied weather packets stored in our database for station/object VE8SKI. If no packets are shown the sender has not sent any weather packets the latest 10 day(s).
| Time | Temp. | Humidity | Pressure | Rain* | Wind** | Luminosity | Snow |
|---|---|---|---|---|---|---|---|
| 1777325972 | -1.11° C | 68% | 1019 hPa | 0 mm | 1.34 m/s, 315° | - | - |
| 1777325673 | -1.11° C | 67% | 1019 hPa | 0 mm | 1.79 m/s, 359° | - | - |
| 1777325373 | -0.56° C | 66% | 1019.1 hPa | 0 mm | 1.79 m/s, 240° | - | - |
| 1777325074 | -0.56° C | 66% | 1019.1 hPa | 0 mm | 1.34 m/s, 262° | - | - |
| 1777324772 | -0.56° C | 66% | 1019.1 hPa | 0 mm | 1.34 m/s, 0° | - | - |
| 1777324472 | -0.56° C | 64% | 1019.1 hPa | 0 mm | 1.79 m/s, 212° | - | - |
| 1777324173 | 0° C | 65% | 1019.1 hPa | 0 mm | 0.89 m/s, 148° | - | - |
| 1777323876 | -0.56° C | 66% | 1019.1 hPa | 0 mm | 1.34 m/s, 249° | - | - |
| 1777323574 | -1.11° C | 65% | 1019.1 hPa | 0 mm | 1.79 m/s, 235° | - | - |
| 1777323275 | -0.56° C | 65% | 1019.2 hPa | 0 mm | 1.79 m/s, 357° | - | - |
| 1777322972 | -0.56° C | 64% | 1019.2 hPa | 0 mm | 0.45 m/s, 232° | - | - |
| 1777322673 | 0° C | 65% | 1019.3 hPa | 0 mm | 0.89 m/s, 269° | - | - |
| 1777322373 | -0.56° C | 65% | 1019.3 hPa | 0 mm | 0.89 m/s, 236° | - | - |
| 1777322074 | -0.56° C | 66% | 1019.4 hPa | 0 mm | 1.34 m/s, 266° | - | - |
| 1777321774 | -0.56° C | 66% | 1019.4 hPa | 0 mm | 0.45 m/s, 235° | - | - |
| 1777321475 | -1.11° C | 65% | 1019.4 hPa | 0 mm | 2.24 m/s, 304° | - | - |
| 1777321173 | -0.56° C | 64% | 1019.4 hPa | 0 mm | 1.79 m/s, 236° | - | - |
| 1777320873 | -0.56° C | 64% | 1019.6 hPa | 0 mm | 1.34 m/s, 359° | - | - |
| 1777320574 | -0.56° C | 65% | 1019.6 hPa | 0 mm | 0.45 m/s, 359° | - | - |
| 1777320274 | -1.11° C | 65% | 1019.6 hPa | 0 mm | 2.24 m/s, 193° | - | - |
| 1777319974 | -1.67° C | 65% | 1019.6 hPa | 0 mm | 2.24 m/s, 125° | - | - |
| 1777319675 | -1.67° C | 65% | 1019.7 hPa | 0 mm | 1.79 m/s, 208° | - | - |
| 1777319373 | -1.67° C | 65% | 1019.7 hPa | 0 mm | 2.68 m/s, 284° | - | - |
| 1777319073 | -1.67° C | 64% | 1019.7 hPa | 0 mm | 2.68 m/s, 207° | - | - |
| 1777318774 | -1.11° C | 65% | 1019.7 hPa | 0 mm | 0.89 m/s, 226° | - | - |
* Rain latest hour (hover to see other rain measurements)
** Current wind speed in m/s (hover to see current wind gust speed)